EST,Max TemperatureF,Mean TemperatureF,Min TemperatureF,Max Dew PointF,MeanDew PointF,Min DewpointF,Max Humidity, Mean Humidity, Min Humidity, Max Sea Level PressureIn, Mean Sea Level PressureIn, Min Sea Level PressureIn, Max VisibilityMiles, Mean VisibilityMiles, Min VisibilityMiles, Max Wind SpeedMPH, Mean Wind SpeedMPH, Max Gust SpeedMPH,PrecipitationIn, CloudCover, Events, WindDirDegrees
2013-2-1,52,41,29,28,16,2,54,34,13,30.38,30.25,30.14,10,10,10,26,11,35,0.00,0,,276
2013-2-2,58,39,20,34,18,10,81,49,17,30.39,30.28,30.12,10,10,10,14,3,20,T,1,Rain,252
2013-2-3,63,50,36,40,31,24,83,54,25,30.12,30.05,29.94,10,10,10,29,12,43,T,1,,278
2013-2-4,53,41,29,33,28,25,92,64,35,30.16,30.09,30.06,10,10,10,8,1,12,0.00,0,,149
2013-2-5,69,49,28,46,36,27,100,69,37,30.06,30.02,29.97,10,7,0,18,4,23,T,3,Fog-Rain,258
2013-2-6,73,54,35,48,38,31,100,62,23,30.18,30.10,30.04,10,4,0,8,2,13,0.00,1,Fog,269
2013-2-7,51,44,37,49,45,34,93,86,79,30.17,30.04,29.89,10,5,1,23,7,31,3.10,7,Rain,17
2013-2-8,65,55,44,48,44,41,93,73,52,30.12,29.97,29.89,10,10,10,21,8,28,0.00,5,,318
2013-2-9,64,48,32,38,32,25,92,58,23,30.32,30.25,30.12,10,10,10,9,3,13,0.00,0,,345
2013-2-10,69,50,31,55,42,31,96,69,42,30.40,30.27,30.13,10,9,4,21,6,28,0.20,3,Rain,141
2013-2-11,70,63,55,63,57,53,100,87,73,30.18,30.11,30.06,10,7,2,20,8,26,1.30,8,Rain,199
2013-2-12,65,58,50,54,49,41,96,70,43,30.14,30.01,29.89,10,8,2,14,3,17,1.18,7,Rain,27
2013-2-13,59,53,47,54,48,40,100,83,66,29.91,29.81,29.75,10,7,1,21,8,32,0.14,7,Rain-Thunderstorm,243
2013-2-14,53,44,34,40,36,34,100,77,54,30.10,30.04,29.91,10,8,0,9,2,15,0.00,0,Fog,304
2013-2-15,66,48,30,43,33,28,100,64,28,30.13,30.07,29.97,10,4,0,9,1,13,0.00,2,Fog,148
2013-2-16,51,43,34,39,31,11,100,63,26,30.10,29.96,29.87,10,10,5,29,9,36,0.14,5,Rain,299
2013-2-17,49,39,29,20,11,6,63,41,18,30.32,30.22,30.12,10,10,10,22,11,28,0.00,0,,289
2013-2-18,59,41,22,27,21,16,92,56,20,30.42,30.34,30.26,10,10,10,14,4,21,0.00,0,,163
2013-2-19,57,45,33,50,39,25,93,70,46,30.23,30.08,30.00,10,7,1,15,5,20,0.33,5,Fog-Rain,275
2013-2-20,61,43,25,31,22,16,78,49,20,30.19,30.12,30.07,10,10,10,14,4,18,0.00,0,,272
2013-2-21,67,49,30,37,29,19,85,53,20,30.20,30.12,30.05,10,10,4,9,2,15,0.00,0,,103
2013-2-22,52,47,41,43,40,33,96,78,59,30.19,30.14,30.09,10,4,2,16,7,21,1.15,8,Rain,50
2013-2-23,47,44,41,46,42,39,100,95,89,30.08,29.95,29.85,10,5,2,23,4,29,0.76,8,Rain,19
2013-2-24,71,56,40,46,42,31,100,62,23,30.01,29.95,29.90,10,8,0,13,3,15,0.00,4,Fog,301
2013-2-25,50,45,40,42,36,30,100,73,46,30.09,30.01,29.96,10,10,5,23,7,29,0.01,6,Rain,72
2013-2-26,58,50,41,54,45,37,96,90,83,29.96,29.73,29.59,10,6,1,14,7,16,1.09,8,Rain,20
2013-2-27,63,52,40,42,37,34,93,66,39,29.91,29.84,29.79,10,10,10,18,9,22,0.00,0,,245
2013-2-28,59,50,41,39,32,25,76,56,36,29.96,29.88,29.82,10,10,10,23,13,30,0.00,1,,287